Location: Bessat
(45.8735°N, 1.9924°E)
Time: 07:50:15
(UTC+00:00)

Terra - Pass Details

Date: 11 May 2021
Orbit: 701 x 703 km, 98.2° (Epoch: 20 June)

Event Time Altitude Azimuth Distance (km) Brightness Sun altitude
Exits shadow 21:32:48 39° 145° (SE) 1,043 2.2 -19.0°
Maximum altitude 21:34:28 70° 74° (ENE) 751 1.8 -19.2°
Drops below altitude 10° 21:39:14 10° 351° (N) 2,182 5.3 -19.6°
Sets 21:41:30 0° 349° (N) 3,105 6.4 -19.9°
